Location: Malvern Link
(52.1333°N, 2.3000°W)
Time: 14:10:58
(UTC+00:00)

DIWATA 2B (PO-101) - Pass Details

Date: 28 June 2022
Orbit: 583 x 599 km, 98.0° (Epoch: 19 August)

Event Time Altitude Azimuth Distance (km) Brightness Sun altitude
Exits shadow 02:49:38 - 208° (SSW) 2,030 ? -7.1°
Reaches altitude 10° 02:49:55 10° 211° (SSW) 1,936 ? -7.1°
Maximum altitude 02:53:24 25° 267° (W) 1,230 ? -6.8°
Drops below altitude 10° 02:56:55 10° 323° (NW) 1,953 ? -6.5°
Sets 02:59:25 0° 337° (NNW) 2,862 ? -6.2°
